Dewpoint
42 42 43 43 43 43 43 43 44 44 45 46 49 49 47 47 46 33 35 41 47 52 47 36 34 33 26 25 25 21 16 11 10 7 1 5 10 10 13 16 22 33 44 52 59
43 43 43 43 43 43 44 44 44 45 45 45 46 49 47 48 38 28 26 49 49 52 46 41 33 29 25 22 22 21 17 12 10 8 6 5 10 7 12 15 17 31 42 53 58
43 43 43 43 43 44 44 44 44 44 46 45 44 48 48 45 31 28 45 46 50 56 46 45 40 31 24 20 21 21 17 10 8 7 10 10 8 11 13 10 14 24 28 44 56
43 43 43 43 43 43 44 44 44 43 43 46 44 46 48 38 16 46 44 41 42 52 48 46 43 33 25 18 16 19 19 16 13 11 16 18 15 10 11 11 13 20 26 26 42
42 43 43 43 43 43 43 44 44 44 44 44 46 46 41 28 25 31 31 38 37 43 47 46 43 34 22 15 11 16 18 18 15 14 17 19 16 14 13 13 15 17 21 22 26
42 42 43 43 43 43 43 44 44 44 44 44 45 46 35 26 28 28 26 27 31 37 43 44 44 39 23 14 6 9 15 18 19 17 18 18 17 14 14 15 14 13 16 19 23
43 42 42 43 43 44 44 44 44 44 44 44 45 42 32 28 30 30 28 27 26 32 41 42 41 38 34 20 9 5 9 14 16 18 18 19 17 16 16 15 13 14 13 17 19
43 42 42 43 44 44 44 44 44 44 45 45 45 39 31 32 31 27 27 25 24 25 30 39 45 40 33 28 16 7 6 10 12 15 16 17 13 7 11 14 12 12 9 11 17
42 42 42 43 45 45 44 43 44 44 44 44 40 36 28 28 23 23 22 22 20 18 25 32 40 41 36 29 22 13 6 8 9 10 14 16 13 8 4 8 9 10 9 9 15
42 42 42 42 44 44 43 43 40 42 40 36 34 30 31 28 26 28 25 23 21 21 16 28 37 38 37 29 26 17 13 9 6 6 5 9 15 13 7 5 10 11 10 7 9
42 42 42 41 43 43 41 33 29 31 31 28 27 27 28 30 31 28 26 23 24 24 13 24 33 35 33 31 28 27 21 14 12 5 5 5 5 7 8 5 9 9 8 8 7
42 42 42 42 43 42 38 35 38 38 32 29 27 29 27 27 25 27 25 22 22 20 14 19 31 32 30 27 27 26 24 21 15 13 8 12 14 12 6 6 7 11 11 10 12
42 42 42 43 43 40 35 37 41 41 33 24 23 24 22 22 32 28 28 21 20 22 14 12 21 24 25 26 25 25 22 22 18 17 16 15 19 19 14 11 10 12 16 13 11
42 42 43 43 39 36 34 36 38 42 27 11 12 12 20 20 26 26 25 22 23 25 21 7 14 17 23 26 25 22 23 22 23 21 18 20 17 18 17 15 16 17 20 21 18
42 42 43 42 37 33 34 38 38 40 12 11 9 14 9 16 22 28 31 25 18 24 31 13 6 11 16 20 25 22 22 22 23 25 24 22 21 19 18 16 15 17 19 18 18
41 42 41 38 38 37 38 39 40 26 10 11 7 6 3 3 13 29 30 24 22 17 28 29 22 16 10 15 20 23 23 24 23 21 18 21 21 20 20 21 21 21 19 20 20
42 42 37 37 34 39 40 34 23 13 16 5 5 4 2 2 5 17 26 24 18 18 13 20 22 22 22 13 12 28 26 27 27 28 20 17 17 18 18 19 21 20 23 24 24
42 38 37 38 40 41 37 24 14 18 11 9 6 0 0 2 4 10 19 21 19 15 17 22 18 19 21 19 11 23 30 26 19 13 14 15 12 13 15 16 16 15 19 22 24
39 33 34 38 40 39 28 22 20 14 10 10 5 2 1 1 5 11 18 16 22 19 20 22 25 28 28 24 23 14 23 28 22 18 13 9 11 12 10 13 16 17 19 23 28
28 25 27 38 40 36 27 23 21 16 14 12 5 6 3 4 7 10 10 14 21 19 22 23 17 25 20 24 27 32 28 24 30 23 18 14 8 8 11 9 15 25 27 28 30
31 22 36 36 39 27 26 24 18 15 14 14 10 9 8 7 8 10 10 12 15 16 20 20 21 16 17 20 27 32 30 32 32 25 18 14 12 12 25 25 24 25 24 27 30
26 29 33 34 28 31 27 22 23 16 17 16 16 12 10 11 12 9 9 13 19 17 16 21 19 15 13 19 17 26 31 30 25 24 28 24 20 27 27 26 26 24 23 22 23
30 29 31 34 27 28 27 27 21 16 14 15 13 13 14 13 16 14 11 16 19 16 22 20 24 13 11 18 19 22 26 27 28 28 23 25 26 29 28 27 27 27 24 22 21
31 30 32 33 25 20 20 22 22 18 17 17 16 15 16 17 15 14 11 14 15 16 26 26 19 14 10 15 14 11 10 19 23 20 17 23 21 28 34 33 25 23 22 23 23
35 30 26 28 28 21 19 19 15 14 18 17 15 14 14 19 18 15 13 12 13 20 19 24 17 11 9 9 9 8 8 8 9 13 15 14 13 16 18 17 16 15 15 16 17
28 30 23 20 21 20 21 23 16 13 15 17 15 15 17 17 14 18 15 14 15 15 15 21 20 16 16 11 7 4 5 5 5 6 7 7 8 11 12 12 13 12 13 12 14
32 28 25 25 19 18 20 19 17 17 18 17 17 18 17 17 21 18 19 19 18 17 16 17 19 17 13 9 9 9 9 5 4 3 2 1 3 5 5 6 5 6 9 10 11
Wind_Speed
13 13 13 14 14 15 15 15 15 16 16 16 17 14 18 19 23 21 22 16 9 4 5 16 15 15 14 20 23 19 26 32 31 29 21 12 11 15 9 11 5 2 4 5 14
13 14 14 14 14 14 14 15 15 16 16 16 16 15 17 20 22 24 23 13 15 12 21 20 20 17 19 17 24 24 26 36 26 26 18 19 13 19 13 17 13 10 8 7 15
13 14 15 15 15 15 15 16 17 17 17 16 16 16 16 23 21 6 16 13 15 16 27 24 23 21 24 24 27 27 38 26 29 25 14 18 16 19 12 19 19 17 9 9 14
13 14 15 15 15 15 16 17 18 19 19 17 15 16 17 14 6 8 9 10 18 9 19 23 25 26 28 30 30 31 34 31 33 18 15 22 23 22 20 18 12 7 9 5 12
13 14 15 16 17 17 17 17 18 19 20 19 16 15 13 11 20 13 14 9 13 12 17 22 25 28 34 31 29 36 34 30 25 30 20 21 25 24 25 18 21 16 14 13 14
12 13 14 16 16 17 18 19 20 20 19 19 17 13 15 24 8 10 14 16 15 17 16 18 23 26 26 36 32 33 31 30 29 24 26 26 27 25 30 24 24 23 22 21 20
12 14 16 17 18 20 20 23 22 22 21 18 15 14 17 22 20 24 22 23 19 18 18 18 17 21 25 29 32 33 32 22 32 35 27 21 31 41 28 25 20 26 29 27 23
13 14 16 18 20 22 24 25 24 23 17 13 11 14 16 17 17 21 23 26 23 21 21 21 14 19 27 20 24 31 32 34 35 27 31 22 38 34 29 34 33 29 25 26 25
14 16 18 19 21 24 25 25 25 18 10 9 11 11 19 1 10 13 13 16 20 22 23 22 20 20 17 27 28 27 33 41 33 34 25 29 37 32 20 15 30 31 30 29 25
14 16 18 19 21 23 26 28 12 18 10 8 5 13 6 16 26 21 19 22 20 19 23 22 16 25 28 28 38 40 39 37 39 35 32 35 40 28 22 19 18 19 26 29 30
13 15 16 18 21 21 22 11 6 7 8 7 14 14 18 20 20 22 20 17 15 20 29 30 27 30 36 38 32 36 39 38 30 28 34 36 33 31 29 25 21 24 26 24 28
13 15 16 17 18 17 14 8 5 5 10 9 7 12 12 10 23 18 14 15 19 25 28 32 37 39 32 33 35 34 37 35 32 22 25 24 27 27 29 31 26 24 23 22 21
12 15 17 17 17 9 10 9 2 2 6 5 8 7 15 14 9 12 18 14 18 20 30 36 38 38 38 35 36 35 34 31 21 21 17 15 26 29 27 27 27 25 25 26 26
11 14 15 21 8 7 5 11 4 1 6 11 13 9 11 11 5 28 19 17 11 15 26 33 37 32 38 36 36 36 29 29 24 26 27 28 34 30 29 32 30 28 28 25 28
10 14 16 10 8 7 9 12 7 2 7 14 13 9 13 7 13 5 19 13 21 18 9 28 32 38 31 35 35 38 27 28 31 30 28 25 21 23 23 29 31 33 29 30 29
10 13 18 4 6 8 12 12 3 5 5 11 15 18 19 18 15 21 16 14 16 16 9 26 14 19 33 29 30 32 30 25 24 30 34 37 33 32 29 26 28 29 25 23 23
10 12 11 7 8 12 12 7 6 4 13 13 21 19 14 20 15 15 18 14 7 10 20 16 18 20 12 24 32 20 26 18 19 15 27 31 35 31 17 28 22 8 15 13 9
10 12 4 5 9 10 9 7 3 4 7 14 16 18 12 18 16 12 17 18 20 18 17 7 17 23 18 17 26 27 29 14 21 28 33 30 33 39 31 32 2 7 4 3 6
13 6 5 3 9 8 6 2 1 7 11 13 17 15 13 17 16 13 9 14 12 19 12 10 1 17 8 3 9 22 33 30 28 22 23 24 33 33 33 16 11 7 6 5 2
7 5 1 7 8 8 2 1 2 5 10 10 10 11 16 18 15 17 15 15 15 20 19 10 11 3 7 2 7 8 14 28 19 14 29 18 23 24 24 35 14 10 7 5 4
7 3 5 8 6 3 1 3 5 4 8 7 12 12 14 15 14 9 11 9 17 20 15 14 8 10 13 4 4 6 5 5 7 21 15 29 31 22 12 8 12 13 8 7 4
4 1 4 5 1 2 2 3 3 5 4 6 7 9 9 15 9 11 12 13 11 19 16 10 7 14 10 8 4 11 5 4 3 6 17 18 26 7 13 8 7 10 7 5 3
1 3 4 4 2 2 4 1 5 7 5 5 7 5 10 10 6 12 16 8 10 18 12 11 4 11 4 5 1 5 2 3 3 4 7 7 13 13 11 8 7 6 7 9 9
2 1 3 4 4 4 4 4 4 6 9 7 9 10 9 9 9 10 15 6 14 15 6 5 9 12 15 9 9 15 14 8 8 7 15 13 22 21 19 12 14 8 10 12 16
2 4 2 2 4 6 4 5 8 6 6 7 7 8 9 4 10 10 17 18 16 2 6 6 8 16 18 21 20 21 20 19 20 18 18 23 30 27 20 18 19 17 17 18 14
4 4 4 6 4 7 3 4 8 8 5 9 10 11 8 12 16 18 18 18 19 17 12 7 8 17 20 20 20 20 20 22 23 23 23 27 29 28 28 23 20 20 17 16 13
4 1 5 4 6 7 9 8 6 3 6 10 10 11 14 17 14 18 20 22 23 23 21 18 14 12 19 13 15 18 20 16 19 22 23 28 27 26 23 22 23 22 20 19 19
Wind_Direction
17 15 12 10 5 3 359 355 349 343 340 336 336 331 327 325 310 280 257 250 294 344 310 277 266 255 258 245 244 241 249 240 240 243 246 226 204 220 242 260 176 232 16 71 131
14 11 9 4 2 359 359 354 349 344 336 332 328 325 322 317 304 280 264 290 282 249 259 260 253 240 229 250 234 226 233 240 239 248 243 258 217 236 214 225 216 180 129 129 156
8 5 2 359 356 354 350 348 349 344 339 331 326 323 318 311 297 301 54 18 343 275 236 246 256 252 239 232 231 226 238 242 244 254 269 258 241 252 221 240 211 196 156 149 174
5 2 357 352 348 342 339 336 334 335 337 331 324 320 311 300 276 113 52 16 330 284 210 223 231 232 234 231 230 227 241 244 263 256 239 252 265 254 232 240 253 236 177 203 195
2 358 354 348 342 337 331 327 323 322 324 323 320 317 308 274 252 272 352 301 315 268 226 218 221 226 228 230 235 230 241 244 240 258 246 255 253 256 254 241 249 251 241 240 232
356 353 349 344 339 333 328 322 315 310 308 310 307 307 278 274 291 310 301 294 288 279 245 221 230 234 244 234 230 235 240 244 248 230 244 248 257 255 248 254 251 244 244 241 234
352 351 347 343 340 334 324 317 313 308 301 296 294 284 277 265 293 299 287 280 270 265 262 245 238 240 233 244 236 243 243 235 238 242 236 237 260 246 242 246 235 236 236 237 232
353 349 345 343 339 330 322 318 315 308 295 284 277 276 274 267 277 287 280 271 262 247 253 269 289 246 249 247 243 229 235 242 234 229 233 227 258 248 228 230 238 239 247 232 225
349 348 346 345 338 330 325 312 306 296 274 251 250 241 284 333 253 304 282 260 262 247 233 246 250 244 226 231 227 224 226 227 241 225 213 212 243 256 245 238 226 233 232 234 229
345 347 346 344 339 333 322 299 285 284 237 216 265 298 275 315 308 311 286 272 258 242 225 222 230 232 226 212 219 215 223 231 230 227 219 217 236 253 269 230 231 246 236 229 227
341 343 344 344 342 324 331 345 347 198 1 338 313 307 305 317 292 288 264 261 236 234 220 205 209 213 217 218 229 239 230 233 242 241 213 221 244 239 238 238 234 233 242 234 226
335 339 341 341 335 307 17 45 24 340 310 306 318 282 293 303 304 283 233 235 241 232 222 214 215 220 223 232 226 235 246 249 238 229 229 232 242 244 241 238 225 231 241 247 236
331 335 335 330 323 295 16 45 27 244 271 309 280 290 331 334 313 319 302 228 259 248 225 222 216 222 229 232 239 225 235 237 246 237 249 241 248 245 234 235 235 238 246 248 247
324 328 332 322 290 350 27 358 9 227 290 16 353 8 312 322 293 311 304 260 245 258 241 230 233 221 223 228 232 239 222 242 249 241 230 213 249 236 232 241 236 236 227 235 243
319 325 323 325 323 348 338 334 327 232 336 341 330 322 340 28 332 5 314 272 255 240 292 221 229 236 233 219 228 236 240 222 241 239 243 247 249 253 240 233 230 227 227 230 233
318 322 319 210 270 2 330 312 258 277 342 324 347 341 339 359 22 353 342 227 274 269 214 269 296 265 244 244 221 233 243 244 246 240 244 238 243 249 245 239 244 249 233 215 218
313 317 298 302 338 327 317 271 288 2 329 341 340 335 351 359 353 22 355 17 352 271 234 235 239 253 254 237 234 224 223 218 221 221 229 231 237 241 240 255 252 294 239 210 213
305 307 204 302 327 319 298 300 293 318 321 335 325 330 14 13 339 4 25 16 3 338 300 280 211 216 224 236 218 212 210 207 210 221 234 227 234 235 237 250 299 265 311 159 188
297 230 248 31 322 308 307 328 18 313 346 337 322 349 3 15 348 13 48 20 2 5 344 335 43 338 344 290 240 221 217 226 257 274 271 249 221 237 244 189 197 177 225 1 20
297 279 193 341 316 277 33 335 268 316 323 332 343 346 350 2 4 1 20 22 10 3 348 334 304 312 309 226 256 303 314 210 221 220 243 247 247 240 221 231 229 110 80 59 31
268 266 81 332 280 282 165 256 262 313 326 325 335 335 337 351 342 21 350 29 5 351 356 345 313 289 293 212 67 340 255 285 309 238 236 235 243 254 23 60 146 122 103 82 72
278 275 62 310 228 346 220 306 349 282 272 287 294 320 336 330 336 358 358 19 6 347 349 343 317 306 321 311 333 81 48 53 311 346 233 248 251 23 87 73 67 92 84 65 11
264 277 135 273 224 219 280 297 273 276 288 299 298 319 309 321 340 337 335 22 341 340 349 329 322 312 207 190 57 59 120 139 166 195 263 269 206 163 139 92 54 35 8 350 353
112 204 323 328 242 263 216 261 247 248 274 269 282 285 291 332 319 310 313 352 333 331 354 296 303 301 301 313 292 298 300 210 166 251 268 253 270 283 306 319 307 305 310 289 294
358 227 178 182 238 246 228 236 268 259 243 267 283 269 298 295 295 297 319 317 322 67 271 354 288 306 311 313 310 298 291 287 281 268 258 268 274 281 286 300 301 307 290 284 285
162 198 206 274 233 241 181 268 246 262 234 272 267 286 293 293 303 305 312 311 312 302 312 329 286 315 302 290 280 280 287 291 279 273 274 276 274 282 286 286 283 284 280 278 276
281 220 277 255 235 241 238 237 250 258 293 283 291 299 295 294 307 307 300 292 282 282 283 285 279 293 286 298 320 293 271 269 260 261 267 273 280 288 290 295 293 292 289 289 284